Regional Weather Roundup
Issued by NWS

Home | Current Version | Previous Version | Text Only | Print | Product List | Glossary On
Versions: 1 2 3 4 5 6 7 8 9 10 11 12 13 14 15 16 17 18 19 20 21 22 23 24 25 26 27 28 29 30 31 32 33 34 35 36 37 38 39 40 41 42 43 44 45 46 47 48 49 50
000
ASUS43 KTOP 290059
RWRKS

WEATHER ROUNDUP FOR KANSAS
NATIONAL WEATHER SERVICE GOODLAND KS
800 PM CDT TUE MAR 28 2017

NOTE:  "FAIR" INDICATES FEW OR NO CLOUDS BELOW 12,000 FEET WITH NO
SIGNIFICANT WEATHER AND/OR OBSTRUCTIONS TO VISIBILITY.

KSZ001>006-013>018-027>032-041>047-290200-
NORTHWEST KANSAS

CITY           SKY/WX    TMP DP  RH WIND       PRES   REMARKS
GOODLAND       CLOUDY    41  40  96 E14       29.95R
HAYS             N/A     47  45  93 E15       29.95F FOG
HILL CITY      CLOUDY    46  46 100 NE15      29.97F FOG
RUSSELL        RAIN      46  45  96 N12       29.95F FOG
$$

KSZ061>065-074>080-084>089-290200-
SOUTHWEST KANSAS

CITY           SKY/WX    TMP DP  RH WIND       PRES   REMARKS
DODGE CITY     LGT RAIN  46  44  93 E26G37    29.81F FOG
ELKHART          N/A     43  37  79 NE10        N/A
GARDEN CITY    CLOUDY    46  43  89 NE15      29.85R
GREAT BEND     TSTM      48  47  96 NE7       29.98R FOG
LIBERAL        CLOUDY    46  43  87 NE14      29.81S
$$

KSZ066>073-081>083-090>101-290200-
SOUTHEAST KANSAS

CITY           SKY/WX    TMP DP  RH WIND       PRES   REMARKS
CHANUTE        CLOUDY    58  50  75 NE13      29.90F
COFFEYVILLE    CLOUDY    61  52  72 NE13      29.85F
HUTCHINSON     RAIN      50  48  93 NE14      29.88F
MEDICINE LODGE   N/A     47  45  93 N20G32    29.87F
NEWTON         TSTM      47  46  97 N16       29.94R FOG
PARSONS        MOCLDY    61  51  70 NE8       29.88F
WICHITA INTL   LGT RAIN  53  49  86 N14       29.86R
WICHITA JABRA  CLOUDY    53  48  83 NE14G23   29.86R
WICHITA MCCONL LGT RAIN  54  48  82 E13G23    29.83R
WINFIELD       TSTM      56  49  77 E18G24    29.80F
$$

KSZ007>012-019>026-033>040-048>060-102>105-290200-
NORTHEAST KANSAS

CITY           SKY/WX    TMP DP  RH WIND       PRES   REMARKS
CONCORDIA      LGT RAIN  48  44  86 NE13      29.96F
EMPORIA        CLOUDY    53  51  93 E18G30    29.89F
LAWRENCE       CLOUDY    53  51  93 NE13      30.00F
MANHATTAN      CLOUDY    52  48  86 NE15      29.91F
OLATHE IND     CLOUDY    53  50  89 NE13      30.00S
OLATHE EXE     CLOUDY    52  51  97 NE9       29.99S
SALINA         LGT RAIN  53  47  79 N7        30.01R
TOPEKA BILLARD CLOUDY    53  51  93 E14       29.98F
TOPEKA FORBES  CLOUDY    53  51  93 NE13      29.95F FOG
$$




USA.gov is the U.S. government's official web portal to all federal, state and local government web resources and services.